Location: Nebraska Star Party
(42.6000°N, 100.8833°W)
Time: 04:56:36
(UTC-05:00)

Amateur Radio Satellites - All Passes

Search period start: 20 September 2014 04:26
Search period end: 21 September 2014 04:26
Location: Nebraska Star Party, 42.6000°N, 100.8833°W

Satellite Date Start Highest point End Downlink Frequencies (MHz)
Time Altitude Azimuth
Oscar 16 20 Sep 04:26:30 04:30:53 29° 294° (WNW) 04:35:15 437.025 USB, Beacon 2401.1428
JAS-1B 20 Sep 04:34:11 04:39:51 58° 289° (WNW) 04:45:26 435.800 - 435.900 CW/SSB
AO-Echo 20 Sep 04:35:37 04:40:10 42° 290° (WNW) 04:44:50 ?
Gurwin Techsat 1B 20 Sep 05:01:02 05:06:19 65° 287° (WNW) 05:11:33 435.225 FM
ITAMSAT 1 20 Sep 05:10:50 05:15:11 28° 295° (WNW) 05:19:31 435.822 SSB
Uribyol 2 20 Sep 05:15:06 05:19:13 24° 296° (WNW) 05:23:20 436.500 FM
KITSAT 1 20 Sep 05:20:05 05:28:13 78° 57° (ENE) 05:36:17 435.175 FM
AO-7 20 Sep 05:24:44 05:32:20 38° 98° (E) 05:39:52 29.400 - 29.500 MHz
ISS 20 Sep 05:24:54 05:27:44 25° 342° (NNW) 05:30:35 145.800 FM
TMSAT-1 20 Sep 05:38:02 05:42:59 41° 291° (WNW) 05:47:55 436.925 FM
Uosat F 20 Sep 05:45:55 05:50:44 44° 99° (E) 05:55:31 435.120 FM
AO-27 20 Sep 05:47:20 05:49:57 14° 302° (WNW) 05:52:34 436.795 MHz FM
OPAL 20 Sep 05:55:01 06:00:06 56° 257° (WSW) 06:05:15 ?
JAS-2 20 Sep 06:30:03 06:34:51 23° 94° (E) 06:40:03 435.800 - 435.900 CW/SSB, 435.910 FM
RS-15 20 Sep 06:34:08 06:45:02 63° 311° (NW) 06:55:54 29.354 - 29.394 USB, Beacon 29.352 USB
Hamsat 20 Sep 06:34:57 06:37:24 15° 91° (E) 06:39:50 145.90 MHz
STRAND 1 20 Sep 06:38:00 06:42:01 24° 64° (ENE) 06:46:03 ?
ISS 20 Sep 07:02:59 07:05:16 17° 2° (N) 07:07:34 145.800 FM
SO-50 20 Sep 07:10:18 07:14:39 33° 47° (NE) 07:19:02 436.795 FM
KITSAT 1 20 Sep 07:16:45 07:22:45 24° 256° (WSW) 07:28:44 435.175 FM
AO-7 20 Sep 07:17:22 07:25:16 51° 297° (WNW) 07:33:08 29.400 - 29.500 MHz
Uosat F 20 Sep 07:25:19 07:29:15 24° 296° (WNW) 07:33:10 435.120 FM
Hamsat 20 Sep 08:09:33 08:13:39 48° 287° (WNW) 08:17:41 145.90 MHz
JAS-2 20 Sep 08:14:17 08:20:09 60° 288° (WNW) 08:26:48 435.800 - 435.900 CW/SSB, 435.910 FM
STRAND 1 20 Sep 08:16:07 08:20:56 43° 261° (W) 08:25:48 ?
ISS 20 Sep 08:39:43 08:42:44 31° 22° (NNE) 08:45:45 145.800 FM
UOSAT-12 20 Sep 08:45:09 08:49:10 27° 44° (NE) 08:53:08 437.025 FM, 437.400 FM
SO-50 20 Sep 08:50:51 08:55:14 35° 245° (WSW) 08:59:39 436.795 FM
RS-15 20 Sep 08:51:25 09:00:09 26° 341° (NNW) 09:08:59 29.354 - 29.394 USB, Beacon 29.352 USB
MaSat-1 20 Sep 09:01:31 09:06:22 52° 111° (ESE) 09:11:10 437.345 MHz
AO-7 20 Sep 09:13:10 09:16:07 12° 319° (NW) 09:19:04 29.400 - 29.500 MHz
SO-67 20 Sep 09:14:14 09:17:36 50° 285° (WNW) 09:20:56 435.3500 MHz FM
HO-68 20 Sep 09:24:27 09:28:57 17° 90° (E) 09:33:26 435.675 MHz FM
UKube-1 20 Sep 10:04:33 10:05:47 11° 90° (E) 10:07:00 145.840 MHz, 145.915 MHz
ISS 20 Sep 10:16:21 10:19:32 44° 220° (SW) 10:22:42 145.800 FM
UOSAT-12 20 Sep 10:25:00 10:29:30 45° 243° (WSW) 10:33:56 437.025 FM, 437.400 FM
MaSat-1 20 Sep 10:39:22 10:43:23 24° 308° (NW) 10:47:18 437.345 MHz
RS-15 20 Sep 11:08:53 11:17:32 25° 17° (NNE) 11:26:20 29.354 - 29.394 USB, Beacon 29.352 USB
HO-68 20 Sep 11:10:16 11:17:29 86° 288° (WNW) 11:24:40 435.675 MHz FM
FUNcube-1 20 Sep 11:13:03 11:16:35 21° 93° (E) 11:20:03 145.950 - 145.970 MHz USB
Oscar 11 20 Sep 11:20:37 11:24:56 58° 100° (E) 11:29:11 145.825 FM, Beacon 2401.500 USB
UKube-1 20 Sep 11:38:05 11:42:26 69° 286° (WNW) 11:46:46 145.840 MHz, 145.915 MHz
Sapphire 20 Sep 11:52:06 11:55:04 15° 104° (ESE) 11:58:01 437.095 MHz 1200 baud AX-25 AFSK
PCSat 20 Sep 12:17:11 12:21:41 28° 109° (ESE) 12:26:13 145.825 MHz
FUNcube-1 20 Sep 12:48:47 12:53:06 40° 289° (WNW) 12:57:22 145.950 - 145.970 MHz USB
Oscar 11 20 Sep 12:58:17 13:00:37 14° 297° (WNW) 13:02:57 145.825 FM, Beacon 2401.500 USB
HO-68 20 Sep 12:59:35 13:04:12 19° 307° (NW) 13:08:49 435.675 MHz FM
Uribyol 2 20 Sep 13:19:13 13:20:09 11° 56° (NE) 13:21:05 436.500 FM
RS-15 20 Sep 13:22:06 13:32:59 57° 47° (NE) 13:44:15 29.354 - 29.394 USB, Beacon 29.352 USB
Oscar 19 20 Sep 13:26:27 13:30:42 26° 65° (ENE) 13:34:57 437.125 CW, 437.150 USB
JAS-1B 20 Sep 13:29:41 13:36:01 26° 62° (ENE) 13:41:36 435.800 - 435.900 CW/SSB
Sapphire 20 Sep 13:32:23 13:37:47 77° 301° (WNW) 13:43:14 437.095 MHz 1200 baud AX-25 AFSK
AO-27 20 Sep 13:47:32 13:51:02 19° 61° (ENE) 13:54:33 436.795 MHz FM
PCSat 20 Sep 13:59:42 14:04:52 45° 307° (NW) 14:10:05 145.825 MHz
Oscar 16 20 Sep 14:04:23 14:09:28 58° 72° (ENE) 14:14:35 437.025 USB, Beacon 2401.1428
AO-Echo 20 Sep 14:11:23 14:15:29 30° 68° (ENE) 14:19:33 ?
AO-7 20 Sep 14:37:38 14:41:16 14° 43° (NE) 14:44:53 29.400 - 29.500 MHz
Gurwin Techsat 1B 20 Sep 14:44:02 14:48:30 29° 65° (ENE) 14:53:00 435.225 FM
ITAMSAT 1 20 Sep 14:49:39 14:54:45 64° 72° (ENE) 14:59:53 435.822 SSB
Uribyol 2 20 Sep 14:53:34 14:58:42 74° 74° (ENE) 15:03:54 436.500 FM
Oscar 19 20 Sep 15:04:56 15:09:49 41° 262° (W) 15:14:45 437.125 CW, 437.150 USB
JAS-1B 20 Sep 15:17:36 15:26:12 71° 257° (WSW) 15:33:22 435.800 - 435.900 CW/SSB
Sapphire 20 Sep 15:18:56 15:22:08 16° 322° (NW) 15:25:21 437.095 MHz 1200 baud AX-25 AFSK
TMSAT-1 20 Sep 15:19:51 15:24:49 43° 69° (ENE) 15:29:49 436.925 FM
AO-27 20 Sep 15:24:58 15:30:04 61° 259° (WSW) 15:35:12 436.795 MHz FM
RS-15 20 Sep 15:34:49 15:45:08 46° 250° (WSW) 15:55:53 29.354 - 29.394 USB, Beacon 29.352 USB
Oscar 16 20 Sep 15:45:43 15:49:11 18° 269° (W) 15:52:40 437.025 USB, Beacon 2401.1428
PCSat 20 Sep 15:48:55 15:49:45 10° 329° (NNW) 15:50:35 145.825 MHz
AO-Echo 20 Sep 15:50:08 15:54:14 29° 264° (W) 15:58:19 ?
Gurwin Techsat 1B 20 Sep 16:23:23 16:28:19 39° 263° (W) 16:33:16 435.225 FM
AO-7 20 Sep 16:24:15 16:32:16 56° 64° (ENE) 16:40:17 29.400 - 29.500 MHz
ITAMSAT 1 20 Sep 16:31:36 16:34:42 16° 269° (W) 16:37:49 435.822 SSB
Uribyol 2 20 Sep 16:36:12 16:38:44 14° 271° (W) 16:41:18 436.500 FM
Uosat F 20 Sep 16:59:49 17:04:46 66° 73° (ENE) 17:09:44 435.120 FM
TMSAT-1 20 Sep 17:00:38 17:04:54 25° 266° (W) 17:09:12 436.925 FM
JAS-1B 20 Sep 17:14:25 17:17:32 12° 272° (W) 17:20:31 435.800 - 435.900 CW/SSB
Saudisat 1A 20 Sep 17:19:04 17:22:44 26° 114° (ESE) 17:26:25 436.775 MHz
MaSat-1 20 Sep 17:19:06 17:20:42 12° 44° (NE) 17:22:13 437.345 MHz
Hamsat 20 Sep 17:29:45 17:31:52 14° 63° (ENE) 17:33:59 145.90 MHz
OPAL 20 Sep 18:04:27 18:09:12 36° 99° (E) 18:13:51 ?
AO-7 20 Sep 18:17:57 18:25:19 35° 263° (W) 18:32:44 29.400 - 29.500 MHz
JAS-2 20 Sep 18:28:05 18:33:15 63° 73° (ENE) 18:38:24 435.800 - 435.900 CW/SSB, 435.910 FM
Uosat F 20 Sep 18:41:17 18:44:01 15° 270° (W) 18:46:45 435.120 FM
MaSat-1 20 Sep 18:54:16 18:58:03 63° 247° (WSW) 19:01:15 437.345 MHz
Saudisat 1A 20 Sep 18:58:05 19:02:10 36° 311° (NW) 19:06:16 436.775 MHz
Hamsat 20 Sep 19:02:59 19:07:18 63° 259° (W) 19:11:38 145.90 MHz
OPAL 20 Sep 19:43:30 19:47:57 30° 296° (WNW) 19:52:21 ?
SO-67 20 Sep 19:47:28 19:50:50 52° 75° (ENE) 19:54:13 435.3500 MHz FM
KITSAT 1 20 Sep 19:48:54 19:56:35 50° 112° (ESE) 20:04:16 435.175 FM
HO-68 20 Sep 19:55:27 19:59:32 16° 51° (NE) 20:03:37 435.675 MHz FM
JAS-2 20 Sep 20:16:01 20:18:54 15° 270° (W) 20:21:47 435.800 - 435.900 CW/SSB, 435.910 FM
STRAND 1 20 Sep 20:25:37 20:30:42 60° 101° (E) 20:35:46 ?
Sapphire 20 Sep 20:37:16 20:41:04 19° 41° (NE) 20:44:50 437.095 MHz 1200 baud AX-25 AFSK
UKube-1 20 Sep 21:01:07 21:02:45 12° 60° (ENE) 21:04:24 145.840 MHz, 145.915 MHz
PCSat 20 Sep 21:03:42 21:08:25 29° 48° (NE) 21:13:06 145.825 MHz
HO-68 20 Sep 21:38:59 21:46:06 77° 71° (ENE) 21:53:15 435.675 MHz FM
KITSAT 1 20 Sep 21:44:28 21:52:05 44° 313° (NW) 21:59:45 435.175 FM
STRAND 1 20 Sep 22:05:55 22:09:25 19° 298° (WNW) 22:12:55 ?
FUNcube-1 20 Sep 22:10:36 22:13:44 19° 64° (ENE) 22:16:56 145.950 - 145.970 MHz USB
Oscar 11 20 Sep 22:16:09 22:20:21 50° 72° (ENE) 22:24:35 145.825 FM, Beacon 2401.500 USB
Sapphire 20 Sep 22:19:44 22:25:12 84° 241° (WSW) 22:30:37 437.095 MHz 1200 baud AX-25 AFSK
UKube-1 20 Sep 22:34:03 22:38:21 73° 257° (WSW) 22:42:43 145.840 MHz, 145.915 MHz
PCSat 20 Sep 22:46:50 22:52:01 47° 247° (WSW) 22:57:10 145.825 MHz
SO-50 20 Sep 23:05:58 23:10:23 66° 120° (ESE) 23:14:57 436.795 FM
HO-68 20 Sep 23:29:31 23:34:30 20° 269° (W) 23:39:31 435.675 MHz FM
KITSAT 1 20 Sep 23:45:17 23:49:59 16° 340° (NNW) 23:54:42 435.175 FM
FUNcube-1 20 Sep 23:45:34 23:49:47 44° 262° (W) 23:54:08 145.950 - 145.970 MHz USB
Oscar 11 20 Sep 23:54:13 23:56:49 15° 269° (W) 23:59:26 145.825 FM, Beacon 2401.500 USB
Sapphire 21 Sep 00:06:15 00:07:43 11° 259° (WSW) 00:09:12 437.095 MHz 1200 baud AX-25 AFSK
UOSAT-12 21 Sep 00:36:28 00:40:53 46° 118° (ESE) 00:45:23 437.025 FM, 437.400 FM
SO-50 21 Sep 00:48:06 00:51:25 20° 320° (NW) 00:54:47 436.795 FM
Saudisat 1A 21 Sep 01:44:33 01:48:27 29° 46° (NE) 01:52:18 436.775 MHz
KITSAT 1 21 Sep 01:45:49 01:49:32 14° 11° (N) 01:53:15 435.175 FM
Oscar 16 21 Sep 02:16:23 02:20:04 19° 92° (E) 02:23:42 437.025 USB, Beacon 2401.1428
UOSAT-12 21 Sep 02:17:20 02:21:14 26° 316° (NW) 02:25:12 437.025 FM, 437.400 FM
ISS 21 Sep 02:58:52 03:01:59 39° 139° (SE) 03:05:07 145.800 FM
ITAMSAT 1 21 Sep 03:02:35 03:06:34 22° 93° (E) 03:10:31 435.822 SSB
JAS-1B 21 Sep 03:03:07 03:07:50 26° 94° (E) 03:12:34 435.800 - 435.900 CW/SSB
Uribyol 2 21 Sep 03:06:12 03:10:28 25° 94° (E) 03:14:43 436.500 FM
Oscar 19 21 Sep 03:15:28 03:20:38 67° 102° (ESE) 03:25:44 437.125 CW, 437.150 USB
Saudisat 1A 21 Sep 03:24:02 03:28:03 35° 244° (WSW) 03:32:02 436.775 MHz
TMSAT-1 21 Sep 03:36:07 03:39:20 16° 90° (E) 03:42:32 436.925 FM
AO-27 21 Sep 03:37:16 03:42:17 46° 99° (E) 03:47:17 436.795 MHz FM
KITSAT 1 21 Sep 03:41:07 03:48:07 31° 40° (NE) 03:55:04 435.175 FM
OPAL 21 Sep 03:45:55 03:46:58 11° 53° (NE) 03:48:02 ?
RS-15 21 Sep 03:48:44 03:57:38 30° 104° (ESE) 04:06:24 29.354 - 29.394 USB, Beacon 29.352 USB
Oscar 16 21 Sep 03:54:41 03:59:44 53° 289° (WNW) 04:04:43 437.025 USB, Beacon 2401.1428
AO-Echo 21 Sep 03:55:17 04:00:10 81° 103° (ESE) 04:05:10 ?
